CAPE
1426 1226 264 325 72 4 5 3 1 0 23 41 44 50 12 54 1 0 0 0 5 87 289 342 551 318 602 742 669 391 423 315 463 490 610 569 553 751 840 1051 1535 1547 1258 1244 1759 1718 1639 1635 1404
1048 202 177 448 9 28 9 0 5 9 61 101 80 78 52 4 28 0 16 5 0 129 549 285 724 377 761 848 904 791 568 597 322 485 593 566 699 760 773 1096 1316 1444 1535 1278 967 1368 1544 1543 1428
203 484 334 202 7 13 12 0 0 71 111 96 69 60 12 0 8 12 166 16 46 162 254 491 900 717 725 1101 423 447 698 552 575 475 511 604 240 670 941 1126 1273 1425 1259 1377 596 523 1031 1369 1326
67 422 540 43 13 5 2 0 1 73 72 218 139 13 19 49 64 85 92 13 106 95 216 831 736 902 874 1247 331 545 570 310 480 527 570 398 310 268 864 1085 1203 1146 1443 1253 916 845 1037 1004 853
632 806 223 34 8 0 0 0 10 38 90 208 46 13 7 54 55 249 77 56 24 117 475 1172 877 956 1056 775 383 492 799 785 164 180 588 463 236 239 394 903 1120 1271 1187 1214 775 605 910 1009 796
787 546 45 4 0 0 0 4 9 89 176 247 85 34 136 81 220 295 100 67 103 34 540 1104 1047 1030 1140 572 455 1135 551 222 211 144 238 609 465 271 311 649 1021 1129 1180 1093 437 533 865 900 806
290 129 66 26 0 0 5 15 14 112 241 197 98 66 104 143 201 159 93 85 91 166 412 1011 1012 889 1065 385 1221 641 126 140 386 561 313 436 573 433 598 886 875 991 658 413 388 589 784 785 813
1217 620 149 76 28 28 0 0 43 55 197 360 186 64 77 182 167 186 265 272 169 307 414 732 828 780 665 783 1055 302 104 191 224 496 373 389 592 608 744 727 849 764 608 518 564 654 548 404 553
788 383 185 111 57 89 0 0 82 172 278 193 234 215 199 245 326 356 399 421 379 408 400 550 438 431 516 704 631 288 209 95 89 253 440 118 177 515 770 672 726 715 795 444 298 275 251 277 348
585 377 153 101 90 58 10 0 107 149 129 35 172 233 235 382 376 417 441 403 157 137 341 444 256 161 199 387 281 215 76 61 75 127 96 0 26 181 530 696 678 688 669 490 300 188 189 266 0
611 140 3 80 133 82 15 0 46 128 143 94 100 173 312 371 463 438 460 373 65 84 168 170 84 60 3 24 0 123 0 10 15 77 160 81 4 119 452 456 645 513 695 555 642 441 388 244 9
405 226 28 151 182 91 156 76 15 91 65 63 63 191 339 340 420 420 478 411 131 56 11 6 18 1 0 0 0 6 3 0 1 24 100 216 174 172 217 267 504 610 564 487 354 152 247 196 140
240 22 54 208 180 130 109 107 50 52 9 11 39 191 261 319 284 349 378 371 76 45 6 5 0 0 0 0 4 31 72 104 82 147 172 256 239 195 233 346 320 605 516 364 272 199 95 44 147
13 3 15 168 98 17 0 26 0 37 6 0 0 44 126 190 124 87 334 313 90 74 17 16 28 5 0 6 7 38 159 141 166 197 329 374 340 313 279 254 198 248 441 394 261 68 0 0 42
5 0 0 3 0 28 0 0 0 12 0 0 0 0 0 19 64 90 120 74 64 32 0 0 0 0 0 0 15 78 229 312 267 433 439 453 482 515 297 371 148 163 158 303 230 246 229 155 156
0 0 0 5 0 0 2 0 10 69 29 0 0 0 0 0 0 19 1 0 4 11 2 0 4 15 10 21 104 421 282 722 781 746 607 529 694 584 332 305 156 235 318 257 233 192 202 209 199
3 4 7 6 86 39 5 5 73 91 53 11 0 0 0 0 0 0 0 0 0 0 0 0 271 133 80 78 730 618 653 619 747 1112 791 701 787 637 534 309 259 256 284 300 279 196 185 182 178
4 22 8 23 16 104 108 104 41 87 76 41 0 0 0 0 0 0 0 0 0 0 0 0 130 291 296 413 776 956 844 896 1076 997 993 1026 876 738 606 469 511 561 453 368 261 196 123 195 165
19 3 19 59 9 19 107 244 117 21 10 41 8 0 2 0 0 0 0 0 0 0 0 0 45 206 405 368 537 706 972 955 880 969 890 1017 883 821 892 663 734 682 539 327 264 229 184 133 131
1 32 55 54 5 53 54 71 76 44 3 1 0 0 0 0 0 0 0 0 0 0 0 0 30 113 342 445 763 929 1003 1130 964 892 953 939 976 790 708 487 817 740 513 274 299 282 201 130 109
0 3 31 53 33 56 41 19 16 0 9 22 5 3 0 0 0 0 0 0 0 0 0 0 33 119 348 639 964 1144 1160 920 721 625 856 497 659 1027 1027 625 648 675 377 242 227 273 239 132 76
0 14 74 79 16 8 23 10 0 4 0 3 26 8 6 0 0 0 0 0 0 0 0 0 76 305 376 667 950 941 936 904 734 379 555 485 625 803 996 778 783 769 612 328 131 9 228 154 186
1 56 93 70 30 1 16 20 32 22 46 40 0 0 6 20 0 0 0 0 0 0 0 0 151 300 365 618 893 946 924 1036 830 464 146 123 195 623 535 697 586 433 458 416 312 272 297 274 274
0 21 47 18 14 29 16 44 0 11 42 98 91 56 5 7 0 0 3 0 0 0 0 13 174 286 437 631 845 978 885 1025 900 579 404 57 185 140 583 389 661 484 260 281 188 115 352 332 363
0 7 9 95 134 62 0 8 17 3 27 111 1 21 43 25 15 0 4 2 0 0 0 74 226 386 691 719 914 983 990 864 811 688 416 0 0 67 409 348 435 743 496 355 188 8 31 209 359
0 0 0 3 5 0 0 0 3 0 0 36 87 2 44 127 74 33 14 49 31 6 0 92 349 523 771 857 1014 1101 1093 907 722 663 286 91 139 105 106 194 311 465 922 750 475 112 205 505 774
0 0 0 0 0 0 43 0 0 0 0 0 3 6 40 87 110 81 23 78 57 15 28 145 419 558 744 921 990 1142 1065 993 727 306 186 297 310 113 0 45 309 185 407 694 948 780 877 976 982
0 0 0 0 0 0 0 10 0 0 6 6 4 13 127 248 131 125 130 106 174 133 150 303 508 691 841 1032 1063 1067 960 1036 705 478 310 336 303 253 59 39 219 131 182 311 889 1314 1376 1104 895
0 0 0 0 0 0 0 0 0 0 0 7 38 89 90 317 264 140 202 163 207 422 472 558 649 887 934 1075 1112 1182 1120 1170 853 772 659 393 182 23 1 40 50 35 145 345 1088 1391 1354 1208 788
0 0 0 0 0 0 0 0 0 0 0 0 6 35 57 82 67 123 248 287 307 510 741 750 741 884 972 1009 1094 1225 1207 1184 1050 904 736 430 150 0 0 0 3 26 112 287 960 1282 1450 1353 1120
CIN
-15 -7 -83 -65 -19 -41 -28 -18 -19 0 -36 -44 -33 -30 -39 -59 -80 0 0 0 -15 -61 -14 -7 0 -26 -1 -4 -2 -9 -11 -28 -12 -26 -8 0 -2 -2 -4 0 0 0 0 0 0 0 0 0 0
-68 -143 -106 -44 -58 -24 -31 0 -71 -73 -50 -68 -53 -63 -51 -49 -126 0 -152 -79 0 -71 -6 -26 -1 -8 0 0 0 0 0 -5 -15 -11 -5 0 0 0 0 0 0 0 0 0 0 0 0 0 0
-180 -100 -75 -28 -45 -46 -50 0 0 -36 -51 -66 -88 -106 -102 0 -127 -229 -109 -239 -119 -56 -51 -16 -1 -1 0 0 -10 -1 -1 -2 -4 -2 -3 -1 -5 0 0 0 0 0 0 0 -14 -15 0 0 0
-219 -116 -75 -38 -27 -53 -58 -1 -56 -72 -71 -45 -72 -120 -131 -128 -130 -135 -170 -286 -107 -97 -76 -10 -8 0 0 0 -34 0 0 -3 -13 -3 -1 -4 0 0 0 0 0 0 0 0 0 -3 0 -8 -20
-177 -91 -15 -87 -36 0 0 0 -100 -68 -96 -70 -115 -145 -135 -127 -123 -118 -182 -209 -201 -125 -54 0 -4 0 0 -6 -33 -6 0 0 -14 -27 -1 0 -1 0 0 0 0 0 0 0 -2 -7 -2 -7 -12
-122 -124 -64 -49 0 0 0 -94 -117 -68 -77 -87 -117 -142 -84 -126 -97 -96 -182 -194 -122 -180 -77 -2 0 0 0 -13 -28 0 -14 -6 -1 -21 -13 -1 0 0 -2 0 0 0 0 0 -23 -10 -7 -7 -6
-134 -83 -52 -78 -3 0 -79 -92 -90 -86 -67 -96 -136 -122 -154 -137 -99 -131 -179 -183 -167 -120 -87 -16 -11 -9 -2 -34 0 -11 -44 -35 0 0 -5 -4 0 0 0 0 0 0 -1 -9 -19 -11 -9 -7 -7
-104 -63 -54 -83 -75 -63 0 0 -90 -65 -77 -111 -98 -105 -172 -124 -131 -143 -114 -101 -148 -81 -84 -52 -38 -41 -45 -27 -4 -37 -52 -37 -18 0 -4 -2 0 0 0 -1 0 0 0 -1 -7 -12 -16 -30 -14
-138 -44 -45 -47 -105 -101 0 0 -88 -82 -99 -103 -91 -128 -155 -150 -148 -135 -96 -61 -68 -77 -87 -72 -91 -85 -69 -37 -21 -40 -43 -48 -57 -5 -2 -15 -22 -4 -1 -2 0 0 0 -6 -23 -33 -28 -30 -28
-111 -87 -66 -53 -65 -109 -69 0 -114 -91 -115 -118 -142 -161 -186 -167 -169 -142 -113 -103 -170 -189 -110 -87 -112 -126 -115 -72 -63 -65 -102 -90 -71 -50 -76 0 -43 -23 -3 -2 0 -2 -11 -18 -28 -35 -32 -37 0
-128 -49 -186 -60 -44 -69 -57 0 -125 -97 -117 -151 -175 -229 -219 -191 -174 -155 -127 -122 -217 -222 -176 -176 -210 -220 -80 -223 -9 -119 0 -155 -129 -76 -56 -97 -152 -51 -9 -11 -2 -7 -8 -26 -21 -29 -38 -47 -19
-81 -68 -138 -48 -35 -85 -73 -82 -82 -80 -69 -142 -234 -248 -228 -216 -200 -174 -146 -156 -229 -284 -314 -293 -327 -155 0 0 -12 -263 -43 -3 -18 -125 -93 -55 -66 -72 -42 -38 -17 -12 -23 -39 -56 -69 -56 -60 -58
-77 -197 -63 -44 -44 -66 -72 -88 -94 -79 -58 -89 -246 -215 -223 -199 -199 -183 -169 -162 -245 -269 -180 -406 0 0 0 0 -287 -192 -148 -117 -122 -97 -87 -79 -71 -69 -54 -35 -43 -20 -23 -38 -57 -73 -81 -79 -61
-53 -16 -25 -45 -42 -56 0 -104 0 -115 -199 0 0 -221 -227 -241 -262 -275 -199 -179 -345 -241 -280 -304 -266 -287 0 -326 -296 -162 -105 -100 -100 -93 -70 -73 -67 -68 -69 -56 -63 -48 -32 -37 -48 -75 0 0 -81
-58 0 0 -21 0 -56 0 0 0 -170 0 0 0 0 -8 -276 -326 -278 -328 -271 -251 -265 -20 -338 -23 -11 0 0 -242 -158 -102 -81 -86 -75 -68 -73 -71 -55 -68 -61 -78 -66 -60 -35 -39 -40 -45 -55 -51
0 0 0 -82 0 0 -104 0 -206 -233 -214 0 0 0 0 0 0 -317 -84 0 -259 -323 -148 -1 -303 -265 -293 -274 -176 -75 -81 -60 -48 -64 -75 -87 -61 -59 -75 -58 -78 -61 -47 -40 -39 -38 -39 -44 -44
-43 -42 -53 -75 -146 -114 -173 -112 -190 -273 -261 -252 0 0 0 0 0 0 0 0 0 0 0 0 -184 -193 -217 -218 -60 -57 -52 -52 -49 -48 -57 -67 -67 -62 -54 -69 -57 -55 -55 -50 -40 -43 -39 -33 -38
-53 -40 -71 -79 -135 -114 -118 -153 -218 -273 -282 -265 0 0 0 0 0 0 0 0 0 0 0 0 -199 -144 -151 -128 -59 -46 -53 -50 -42 -48 -58 -49 -68 -67 -59 -59 -46 -40 -37 -42 -51 -43 -55 -35 -25
-61 -55 -17 -93 -236 -163 -114 -88 -261 -313 -303 -312 -330 0 -185 0 0 0 0 0 0 0 0 0 -292 -159 -123 -115 -92 -63 -41 -40 -50 -63 -64 -53 -62 -60 -43 -44 -38 -40 -38 -45 -49 -45 -44 -34 -39
-24 -76 -51 -153 -206 -210 -173 -125 -164 -304 -224 -147 0 0 0 0 0 0 0 0 0 0 0 0 -335 -197 -124 -88 -70 -72 -56 -50 -48 -65 -56 -68 -41 -51 -55 -56 -32 -43 -54 -74 -57 -53 -47 -47 -63
-55 -108 -89 -47 -188 -263 -226 -138 -135 -37 -158 -344 -411 -410 0 0 0 0 0 0 0 0 0 0 -303 -213 -148 -76 -73 -73 -68 -71 -59 -66 -67 -87 -41 -45 -46 -46 -41 -37 -62 -70 -74 -66 -55 -42 -74
0 -138 -81 -84 -147 -83 -266 -101 -1 -121 0 -275 -345 -418 -428 0 0 0 0 0 0 0 0 0 -273 -210 -176 -108 -50 -48 -26 -35 -56 -70 -92 -76 -91 -72 -63 -82 -52 -48 -54 -64 -77 -153 -66 -66 -45
-55 -100 -52 -127 -125 -143 -156 -108 -81 -233 -151 -161 0 0 -379 -384 0 0 0 0 0 0 0 0 -266 -231 -190 -145 -74 -51 -44 -48 -62 -92 -152 -159 -149 -97 -119 -122 -111 -100 -74 -56 -55 -60 -63 -77 -63
0 -142 -169 -239 -168 -72 -109 -119 -1 -144 -147 -125 -249 -302 -324 -326 0 0 -409 0 0 0 0 -326 -259 -245 -201 -149 -103 -75 -57 -49 -57 -78 -104 -181 -162 -174 -120 -151 -121 -122 -119 -97 -89 -93 -64 -62 -66
0 -56 -62 -92 -74 -57 0 -163 -145 -75 -160 -138 -118 -253 -286 -325 -339 0 -438 -246 0 0 0 -306 -242 -209 -178 -157 -107 -89 -80 -73 -52 -60 -100 0 0 -160 -118 -140 -125 -98 -113 -127 -147 -14 -46 -79 -59
0 0 0 -8 -12 0 0 0 -16 0 0 -238 -259 -329 -319 -291 -341 -364 -418 -422 -358 -393 0 -296 -228 -194 -172 -160 -123 -99 -85 -85 -101 -93 -125 -157 -149 -123 -157 -135 -119 -120 -68 -72 -103 -171 -130 -71 -47
0 0 0 0 0 0 -74 -2 0 0 0 0 -284 -314 -297 -366 -360 -362 -401 -367 -348 -348 -369 -285 -248 -216 -172 -159 -149 -108 -111 -101 -128 -146 -171 -126 -137 -178 0 -207 -143 -174 -112 -64 -45 -50 -40 -35 -33
0 0 0 0 0 0 0 -51 0 0 -148 -275 -128 -299 -305 -316 -394 -422 -421 -390 -309 -305 -313 -295 -257 -193 -165 -160 -156 -128 -121 -105 -131 -148 -135 -134 -121 -167 -243 -239 -167 -192 -164 -115 -56 -34 -32 -46 -43
0 0 0 0 0 0 0 0 0 0 0 -176 -256 -293 -310 -311 -333 -431 -400 -381 -339 -292 -296 -277 -273 -214 -181 -166 -159 -130 -125 -106 -130 -118 -109 -127 -163 -219 -87 -221 -224 -220 -181 -112 -63 -40 -40 -26 -35
0 0 0 0 0 0 0 0 0 0 0 0 -246 -196 -266 -274 -324 -333 -394 -387 -393 -306 -317 -262 -278 -229 -212 -170 -158 -134 -129 -126 -121 -112 -109 -137 -172 0 0 0 -162 -251 -189 -128 -76 -43 -29 -25 -33
Wind_Speed
24 21 19 14 14 15 11 10 10 13 10 14 15 12 10 11 10 12 16 27 26 30 32 30 30 29 28 28 27 27 24 28 28 28 27 26 27 28 28 29 30 30 31 31 28 29 12 12 5
22 20 15 12 11 12 11 13 13 12 13 15 11 8 11 12 12 5 8 24 25 29 31 31 30 29 28 28 27 27 22 28 26 27 26 25 26 28 28 29 30 30 30 30 29 27 19 11 9
22 16 4 11 15 14 16 15 13 16 19 7 11 11 11 13 22 18 15 26 23 27 29 31 30 29 28 28 27 27 24 27 26 27 26 25 26 28 29 29 30 30 30 27 27 22 19 14 15
19 16 14 16 22 21 20 18 16 15 8 12 12 11 15 22 25 27 23 22 19 29 30 30 30 28 28 27 27 26 26 26 26 26 25 25 26 29 30 30 30 30 29 25 23 21 19 14 10
19 15 12 24 22 22 22 21 21 16 9 11 10 7 14 22 18 25 20 13 22 29 30 30 29 28 27 27 27 26 25 24 25 26 22 26 28 29 29 30 30 30 29 23 21 26 24 20 17
14 15 13 19 25 23 24 24 21 18 15 10 10 9 10 20 19 24 21 7 11 30 31 29 29 27 27 26 26 25 25 22 23 24 9 27 28 29 29 30 30 29 29 25 27 26 25 22 17
14 9 20 24 24 23 23 24 22 22 22 20 19 13 16 20 22 23 22 6 9 32 31 29 28 27 26 25 24 24 23 24 22 23 24 26 27 28 29 29 29 28 25 26 30 29 25 20 15
14 11 15 21 24 19 23 25 24 25 21 21 21 20 22 25 23 19 11 8 17 30 30 29 28 26 25 23 23 23 22 22 21 22 24 25 25 27 28 29 28 28 25 23 24 27 23 19 16
13 12 17 17 22 19 25 24 25 24 25 22 23 20 23 28 25 25 27 16 22 28 29 28 27 25 24 22 22 22 21 21 21 21 22 23 22 24 26 27 27 27 27 25 24 24 19 17 18
14 14 16 19 20 23 26 25 28 24 26 21 20 23 23 27 31 32 31 27 25 28 29 27 26 25 23 22 22 21 21 21 21 21 20 23 24 25 25 26 27 27 26 25 24 23 21 18 18
14 12 16 20 21 24 25 23 25 25 23 21 23 27 26 28 30 31 30 30 27 29 29 27 26 25 23 22 22 22 22 21 21 21 22 22 22 24 25 26 26 26 26 25 25 23 22 20 19
15 15 17 19 24 23 22 23 23 23 19 21 23 27 29 30 30 29 30 26 21 30 29 27 25 25 24 23 22 22 21 21 20 20 20 21 21 24 24 25 25 26 26 25 25 24 24 23 22
18 20 19 24 25 23 21 23 22 22 19 22 24 27 28 29 31 32 29 26 26 27 29 28 26 25 25 24 22 21 21 21 20 20 21 20 20 21 22 24 25 26 25 25 25 25 24 24 24
22 23 23 25 25 24 21 21 21 20 18 22 24 25 26 28 29 31 29 29 30 27 28 28 27 26 24 23 22 21 20 20 20 20 20 19 18 19 20 24 23 25 25 25 25 25 24 24 24
21 21 22 22 22 19 18 18 20 16 19 22 24 25 24 26 28 29 30 30 30 27 25 25 25 24 23 22 21 20 20 19 19 18 17 18 17 19 18 21 22 24 24 25 25 25 25 24 24
17 9 16 13 14 15 15 13 13 15 18 22 25 25 24 26 27 29 30 27 29 26 22 21 23 20 22 19 16 15 14 16 15 17 17 17 16 16 17 19 22 22 22 23 24 23 23 24 22
15 14 11 13 15 12 17 12 14 17 19 20 23 24 24 25 28 29 27 26 26 24 19 15 10 10 13 13 9 8 9 11 11 14 15 14 13 14 16 18 22 22 22 21 23 22 22 23 24
10 11 10 9 10 11 13 15 8 16 18 18 21 22 24 25 28 28 29 23 21 21 15 15 13 10 9 8 4 5 6 6 7 10 8 8 12 12 14 14 17 23 23 23 20 22 20 22 21
9 9 11 11 10 7 8 21 14 18 20 18 21 26 22 25 26 26 27 25 19 19 16 18 18 16 12 12 7 3 5 5 5 6 5 10 11 8 8 10 8 10 14 14 12 19 19 18 17
6 7 10 11 11 1 19 21 21 17 18 22 23 24 30 26 26 26 26 24 21 21 18 18 19 17 16 16 11 5 6 5 5 10 7 2 8 8 7 4 14 13 8 6 16 13 10 21 18
6 4 6 10 11 17 17 23 14 23 22 23 24 26 29 31 28 25 24 25 23 24 21 20 20 19 17 15 10 6 6 8 8 10 14 11 15 10 12 16 10 15 7 9 13 16 13 23 21
16 7 5 8 13 16 16 21 21 22 22 28 28 29 29 32 31 26 23 23 24 26 23 20 19 19 19 16 14 13 13 9 4 6 8 9 7 8 5 21 24 25 15 18 19 24 26 24 22
20 8 7 9 14 18 14 14 24 27 25 31 34 32 32 31 30 25 24 23 25 25 24 21 21 19 18 18 17 17 15 11 9 6 6 5 5 6 5 8 4 18 23 22 24 25 26 25 23
18 15 14 16 17 22 13 11 23 16 17 22 22 30 33 32 29 26 24 22 24 25 23 22 23 21 19 20 20 19 18 16 12 13 12 12 9 7 10 5 4 20 24 23 24 24 25 24 23
14 12 18 18 18 19 13 14 22 22 19 19 21 24 23 22 28 21 21 25 24 26 26 25 24 23 21 20 21 20 19 16 15 14 14 15 17 17 16 10 6 24 26 25 25 24 25 24 23
12 9 14 18 20 24 13 14 20 21 21 21 27 10 23 19 23 24 23 26 25 27 27 26 24 22 21 19 20 19 17 15 15 15 14 15 17 19 16 12 27 17 24 24 24 25 23 22 22
17 15 13 16 21 19 18 26 33 30 10 13 30 21 17 17 20 25 24 26 26 27 27 27 25 24 22 21 19 18 14 16 16 16 16 16 18 17 10 8 4 19 20 21 24 26 24 21 20
17 11 16 18 21 26 21 20 18 29 22 14 24 29 13 17 20 21 25 26 28 27 27 26 25 24 23 20 19 18 15 14 15 16 20 18 19 16 9 13 20 21 21 22 23 24 23 22 20
20 19 19 20 20 24 26 21 15 32 28 5 9 21 17 16 18 20 24 27 28 25 24 25 24 21 21 20 19 18 16 14 17 19 21 20 20 18 19 29 30 27 22 21 23 23 23 8 10
21 28 29 27 25 24 25 23 24 28 22 4 4 18 21 21 16 15 22 24 24 26 22 25 23 20 21 22 20 18 17 14 19 21 23 22 22 23 24 31 30 30 28 24 23 24 23 20 12
Wind_Direction
131 126 137 139 355 27 15 313 33 64 39 182 95 102 40 326 342 29 124 120 114 122 136 136 134 123 127 113 96 94 71 115 114 108 117 129 128 123 113 127 126 122 125 131 143 138 169 168 145
131 131 173 240 351 22 8 57 69 61 67 63 28 6 306 1 311 72 103 115 115 122 133 140 132 122 120 118 104 97 66 100 118 111 118 126 130 128 120 120 127 130 130 139 143 147 164 174 176
128 163 107 284 189 14 76 88 67 83 94 328 359 311 19 63 96 102 209 117 112 119 126 133 128 122 120 120 114 107 82 100 124 104 115 124 122 134 128 121 124 134 134 152 151 164 171 178 175
136 137 167 156 109 101 94 92 88 86 289 266 35 347 48 124 111 130 114 114 107 124 128 130 130 125 124 118 116 121 115 119 111 120 111 119 122 129 130 129 128 136 146 163 168 171 174 183 191
131 150 173 65 111 109 92 98 103 81 5 33 351 11 60 104 84 111 113 112 114 127 131 136 135 130 127 122 119 122 130 132 106 112 59 109 117 119 124 136 134 142 149 172 178 163 166 173 181
169 154 103 39 82 124 113 113 106 93 70 25 26 51 43 108 102 113 112 122 104 131 142 140 140 137 135 129 128 123 120 136 129 129 118 105 105 118 119 133 139 146 150 170 166 166 166 170 180
185 217 135 89 102 127 129 138 145 111 115 121 93 65 82 106 110 112 114 115 160 160 149 148 146 141 139 139 133 130 131 119 137 135 133 117 113 116 130 128 139 159 169 167 141 155 165 179 190
187 215 167 135 118 146 130 134 128 130 143 88 106 132 124 125 115 105 97 214 211 174 162 154 150 144 143 137 134 135 133 115 153 145 136 130 146 126 141 141 139 148 173 184 181 169 177 190 197
204 208 169 162 134 145 124 129 132 136 112 159 150 142 120 123 116 117 124 213 207 186 167 159 151 149 145 145 145 151 141 140 123 163 152 145 168 163 151 157 155 154 161 179 184 186 205 212 201
201 194 185 171 159 135 130 119 126 134 126 148 152 92 110 124 135 141 146 137 205 192 172 163 161 158 154 162 161 161 158 144 142 139 162 145 146 156 163 162 160 165 168 178 189 198 209 221 218
191 208 177 162 149 122 129 125 132 127 140 146 130 123 122 133 140 145 149 161 149 193 178 167 163 162 156 161 159 160 154 158 155 147 161 165 139 158 164 166 175 182 176 180 188 202 212 220 224
211 213 179 149 127 119 132 125 138 136 146 139 123 126 129 142 146 146 152 148 133 178 182 170 158 164 163 161 166 161 161 163 164 152 143 144 144 160 157 163 170 181 187 179 190 191 199 205 214
163 159 144 97 119 124 102 136 139 155 136 111 113 125 136 144 156 162 155 148 149 164 190 175 165 166 171 171 172 164 157 160 159 160 159 146 141 147 154 162 165 176 181 189 189 196 202 208 218
116 117 94 108 126 134 119 142 129 145 105 117 124 131 141 144 147 157 160 160 171 169 172 177 171 174 170 174 172 172 167 166 161 157 157 141 136 137 143 167 163 172 179 190 191 196 203 211 220
106 89 104 128 123 125 129 150 170 118 121 131 141 145 146 150 150 158 159 167 174 171 166 168 173 173 170 169 174 173 173 163 161 150 140 142 136 146 140 150 159 171 175 190 195 200 209 209 219
93 18 71 252 154 225 118 97 335 113 126 139 151 157 154 159 159 163 167 165 174 171 162 158 170 162 168 160 150 140 119 131 134 139 138 140 135 134 135 148 161 164 170 180 189 186 195 200 202
106 109 54 74 332 118 166 110 151 127 138 139 148 157 160 162 170 172 169 167 170 169 155 143 128 123 137 134 115 87 82 108 104 126 132 129 119 128 135 147 169 176 180 178 186 186 192 199 208
93 84 20 40 31 1 150 162 124 137 145 150 157 155 165 168 177 176 179 169 165 165 153 148 145 133 121 114 80 15 36 57 67 107 100 99 117 116 130 134 160 190 193 188 173 186 181 198 196
64 60 36 16 123 52 144 206 133 150 157 158 168 182 167 175 178 175 177 174 164 161 156 159 154 152 136 129 110 84 81 71 50 94 53 126 123 96 100 118 229 112 140 143 134 171 169 165 175
31 52 36 52 24 297 201 202 182 144 157 177 178 178 195 183 184 179 176 172 169 167 160 157 158 153 153 150 127 64 93 74 37 328 341 67 121 104 93 64 275 146 98 45 156 140 119 247 174
351 46 51 8 43 234 226 234 149 206 197 183 188 190 192 198 187 177 170 173 170 170 166 164 164 160 157 150 123 59 1 335 339 328 307 335 161 106 125 146 231 280 94 123 141 153 140 223 211
308 357 30 13 6 317 272 244 241 228 205 207 197 198 196 198 195 180 169 167 170 173 168 166 164 161 161 153 146 140 143 125 79 357 340 337 6 86 19 176 195 235 158 165 168 189 199 230 226
298 333 339 331 320 311 334 344 237 258 232 221 213 204 203 195 186 178 171 168 170 167 168 167 167 164 162 161 159 158 155 135 115 86 2 49 83 88 70 108 8 212 192 178 186 195 195 198 200
306 313 317 311 299 294 331 352 247 209 206 208 185 200 199 192 183 180 175 168 169 166 165 167 169 168 164 165 167 167 166 159 133 138 136 133 135 116 128 71 55 167 182 174 183 191 188 189 193
295 302 301 298 291 291 327 322 215 235 214 190 205 200 179 177 180 171 170 171 167 168 167 167 167 169 167 165 169 171 167 156 153 149 145 144 151 152 154 122 316 232 187 183 188 185 184 189 197
283 274 288 288 289 288 308 316 299 264 228 210 210 299 181 175 178 176 173 172 169 169 169 167 167 167 165 163 167 166 160 156 157 152 142 151 157 165 152 142 198 257 222 221 208 185 178 177 195
283 273 294 294 293 295 295 285 270 270 207 184 207 237 163 161 168 173 172 172 171 170 170 171 171 170 168 167 163 166 159 160 161 159 159 161 170 162 113 98 81 245 244 239 225 202 193 181 183
274 282 282 288 292 289 294 294 311 260 237 180 185 187 158 155 161 167 171 175 175 174 172 170 172 172 170 165 165 165 162 159 161 162 176 175 180 171 144 149 249 240 235 231 228 213 206 195 190
271 274 285 292 295 294 290 291 294 261 278 242 157 170 164 162 157 161 167 175 176 172 172 173 173 173 172 170 167 165 163 160 164 171 180 185 185 179 186 191 197 224 242 241 232 224 220 188 153
270 274 281 276 279 288 291 282 281 292 291 306 172 170 171 168 164 160 165 167 169 174 171 174 175 174 176 173 169 166 162 160 166 176 190 190 189 218 205 193 181 191 196 212 218 224 217 239 351